Volver al catálogo

FENGYUN 1C DEB

ActivoPO
NORAD 29901·DEBRIS·🇨🇳 China

Lanzado May 10, 1999 desde Taiyuan Satellite Launch Center

Loading…

Próximos Pases (próximas 24 horas)

TLE

ActualizadoSource: Space-Track

Época: Sep 13, 2026, 20:42 UTC

1 29901U 99025GX  26256.86299015  .00000172  00000-0  28501-3 0  9996
2 29901  98.7833  33.4912 0377734 320.2434 168.1781 13.33404812955855

Sigue FENGYUN 1C DEB en tiempo real con AllMySat

Download on the App Store